Time,TemperatureF,DewpointF,PressureIn,WindDirection,WindDirectionDegrees,WindSpeedMPH,WindSpeedGustMPH,Humidity,HourlyPrecipIn,Conditions,Clouds,dailyrainin,SoftwareType,DateUTC
2013-09-30 00:00:00,44.5,38.0,29.90,North,0,0.0,0.0,78,0.00,,,0.00,WUHU216HW,2013-09-30 04:00:00,
2013-09-30 00:01:00,44.5,38.0,29.90,North,0,0.0,0.0,78,0.00,,,0.00,WUHU216HW,2013-09-30 04:01:00,
2013-09-30 00:02:00,44.3,37.8,29.90,North,0,0.0,0.0,78,0.00,,,0.00,WUHU216HW,2013-09-30 04:02:00,
2013-09-30 00:03:00,44.3,37.8,29.90,North,0,0.0,0.0,78,0.00,,,0.00,WUHU216HW,2013-09-30 04:03:00,
2013-09-30 00:08:00,44.3,37.8,29.90,North,0,0.0,0.0,78,0.00,,,0.00,WUHU216HW,2013-09-30 04:08:00,
2013-09-30 01:00:00,42.7,36.5,29.88,North,0,0.0,0.0,79,0.00,,,0.00,WUHU216HW,2013-09-30 05:00:00,
2013-09-30 01:05:00,42.5,36.4,29.88,North,0,0.0,0.0,79,0.00,,,0.00,WUHU216HW,2013-09-30 05:05:00,
2013-09-30 01:10:00,42.5,36.4,29.88,North,0,0.0,0.0,79,0.00,,,0.00,WUHU216HW,2013-09-30 05:10:00,
2013-09-30 01:15:00,42.5,36.4,29.88,North,0,0.0,0.0,79,0.00,,,0.00,WUHU216HW,2013-09-30 05:15:00,
2013-09-30 02:00:00,40.7,35.3,29.88,North,0,0.0,0.0,81,0.00,,,0.00,WUHU216HW,2013-09-30 06:00:00,
2013-09-30 02:05:00,40.7,35.3,29.87,North,0,0.0,0.0,81,0.00,,,0.00,WUHU216HW,2013-09-30 06:05:00,
2013-09-30 02:10:00,40.7,35.3,29.87,North,0,0.0,0.0,81,0.00,,,0.00,WUHU216HW,2013-09-30 06:10:00,
2013-09-30 02:15:00,40.7,35.3,29.87,North,0,0.0,0.0,81,0.00,,,0.00,WUHU216HW,2013-09-30 06:15:00,
2013-09-30 02:20:00,40.7,35.3,29.87,North,0,0.0,0.0,81,0.00,,,0.00,WUHU216HW,2013-09-30 06:20:00,
2013-09-30 03:00:00,39.2,33.7,29.86,North,0,0.0,0.0,80,0.00,,,0.00,WUHU216HW,2013-09-30 07:00:00,
2013-09-30 03:05:00,39.2,33.7,29.86,North,0,0.0,0.0,80,0.00,,,0.00,WUHU216HW,2013-09-30 07:05:00,
2013-09-30 03:10:00,39.2,33.7,29.86,North,0,0.0,0.0,80,0.00,,,0.00,WUHU216HW,2013-09-30 07:10:00,
2013-09-30 04:00:00,38.3,32.8,29.86,North,0,0.0,0.0,80,0.00,,,0.00,WUHU216HW,2013-09-30 08:00:00,
2013-09-30 04:05:00,38.2,32.9,29.85,North,0,0.0,0.0,81,0.00,,,0.00,WUHU216HW,2013-09-30 08:05:00,
2013-09-30 04:10:00,38.2,32.9,29.85,North,0,0.0,0.0,81,0.00,,,0.00,WUHU216HW,2013-09-30 08:10:00,
2013-09-30 05:00:00,37.4,32.1,29.86,North,0,0.0,0.0,81,0.00,,,0.00,WUHU216HW,2013-09-30 09:00:00,
2013-09-30 05:05:00,37.4,32.1,29.86,North,0,0.0,0.0,81,0.00,,,0.00,WUHU216HW,2013-09-30 09:05:00,
2013-09-30 05:10:00,37.4,32.1,29.86,North,0,0.0,0.0,81,0.00,,,0.00,WUHU216HW,2013-09-30 09:10:00,
2013-09-30 06:00:00,36.7,31.7,29.86,North,0,0.0,0.0,82,0.00,,,0.00,WUHU216HW,2013-09-30 10:00:00,
2013-09-30 06:05:00,36.5,31.2,29.86,North,0,0.0,0.0,81,0.00,,,0.00,WUHU216HW,2013-09-30 10:05:00,
2013-09-30 06:10:00,36.5,31.2,29.86,North,0,0.0,0.0,81,0.00,,,0.00,WUHU216HW,2013-09-30 10:10:00,
2013-09-30 07:00:00,37.8,33.4,29.87,North,0,0.0,0.0,84,0.00,,,0.00,WUHU216HW,2013-09-30 11:00:00,
2013-09-30 07:05:00,37.8,33.4,29.87,North,0,0.0,0.0,84,0.00,,,0.00,WUHU216HW,2013-09-30 11:05:00,
2013-09-30 07:10:00,38.0,33.6,29.87,North,0,0.0,0.0,84,0.00,,,0.00,WUHU216HW,2013-09-30 11:10:00,
2013-09-30 07:15:00,38.0,33.6,29.87,North,0,0.0,0.0,84,0.00,,,0.00,WUHU216HW,2013-09-30 11:15:00,
2013-09-30 08:00:00,38.5,34.4,29.86,North,0,0.0,0.0,85,0.00,,,0.00,WUHU216HW,2013-09-30 12:00:00,
2013-09-30 08:05:00,38.5,34.4,29.86,North,0,0.0,0.0,85,0.00,,,0.00,WUHU216HW,2013-09-30 12:05:00,
2013-09-30 08:10:00,38.5,34.4,29.86,North,0,0.0,0.0,85,0.00,,,0.00,WUHU216HW,2013-09-30 12:10:00,
2013-09-30 09:00:00,42.3,38.7,29.87,North,0,0.0,0.0,87,0.00,,,0.00,WUHU216HW,2013-09-30 13:00:00,
2013-09-30 09:05:00,42.7,39.1,29.87,North,0,0.0,0.0,87,0.00,,,0.00,WUHU216HW,2013-09-30 13:05:00,
2013-09-30 09:10:00,42.7,39.1,29.87,North,0,0.0,0.0,87,0.00,,,0.00,WUHU216HW,2013-09-30 13:10:00,
2013-09-30 10:00:00,50.9,45.3,29.85,North,0,0.0,0.0,81,0.00,,,0.00,WUHU216HW,2013-09-30 14:00:00,
2013-09-30 10:05:00,51.8,45.9,29.85,North,0,0.0,0.0,80,0.00,,,0.00,WUHU216HW,2013-09-30 14:05:00,
2013-09-30 10:10:00,51.8,45.9,29.85,North,0,0.0,0.0,80,0.00,,,0.00,WUHU216HW,2013-09-30 14:10:00,
2013-09-30 11:00:00,63.4,53.8,29.83,North,0,0.0,0.0,71,0.00,,,0.00,WUHU216HW,2013-09-30 15:00:00,
2013-09-30 11:05:00,64.4,54.5,29.83,North,0,0.0,0.0,70,0.00,,,0.00,WUHU216HW,2013-09-30 15:05:00,
2013-09-30 11:10:00,64.4,54.5,29.83,North,0,0.0,0.0,70,0.00,,,0.00,WUHU216HW,2013-09-30 15:10:00,
2013-09-30 12:00:00,68.4,54.0,29.80,North,0,0.0,0.0,60,0.00,,,0.00,WUHU216HW,2013-09-30 16:00:00,
2013-09-30 12:05:00,69.1,54.2,29.80,North,0,0.0,0.0,59,0.00,,,0.00,WUHU216HW,2013-09-30 16:05:00,
2013-09-30 12:10:00,69.5,54.5,29.80,North,0,0.0,0.0,59,0.00,,,0.00,WUHU216HW,2013-09-30 16:10:00,
2013-09-30 12:15:00,69.5,54.5,29.80,North,0,0.0,0.0,59,0.00,,,0.00,WUHU216HW,2013-09-30 16:15:00,
2013-09-30 13:00:00,73.8,54.6,29.79,North,0,0.0,0.0,51,0.00,,,0.00,WUHU216HW,2013-09-30 17:00:00,
2013-09-30 13:05:00,74.3,55.1,29.78,North,0,0.0,0.0,51,0.00,,,0.00,WUHU216HW,2013-09-30 17:05:00,
2013-09-30 13:10:00,74.3,55.1,29.78,North,0,0.0,0.0,51,0.00,,,0.00,WUHU216HW,2013-09-30 17:10:00,
2013-09-30 13:15:00,74.3,55.1,29.78,North,0,0.0,0.0,51,0.00,,,0.00,WUHU216HW,2013-09-30 17:15:00,
2013-09-30 14:00:00,77.2,56.0,29.77,North,0,0.0,0.0,48,0.00,,,0.00,WUHU216HW,2013-09-30 18:00:00,
2013-09-30 14:05:00,77.4,56.2,29.77,North,0,0.0,0.0,48,0.00,,,0.00,WUHU216HW,2013-09-30 18:05:00,
2013-09-30 14:10:00,77.4,56.2,29.77,North,0,0.0,0.0,48,0.00,,,0.00,WUHU216HW,2013-09-30 18:10:00,
2013-09-30 15:00:00,76.9,54.5,29.75,North,0,0.0,0.0,46,0.00,,,0.00,WUHU216HW,2013-09-30 19:00:00,
2013-09-30 15:05:00,76.9,54.5,29.75,North,0,0.0,0.0,46,0.00,,,0.00,WUHU216HW,2013-09-30 19:05:00,
2013-09-30 15:10:00,76.9,54.5,29.75,North,0,0.0,0.0,46,0.00,,,0.00,WUHU216HW,2013-09-30 19:10:00,
2013-09-30 16:00:00,73.6,53.2,29.75,North,0,0.0,0.0,49,0.00,,,0.00,WUHU216HW,2013-09-30 20:00:00,
2013-09-30 16:05:00,73.3,52.9,29.75,North,0,0.0,0.0,49,0.00,,,0.00,WUHU216HW,2013-09-30 20:05:00,
2013-09-30 16:10:00,73.3,52.9,29.75,North,0,0.0,0.0,49,0.00,,,0.00,WUHU216HW,2013-09-30 20:10:00,
2013-09-30 17:00:00,70.0,51.6,29.74,North,0,0.0,0.0,52,0.00,,,0.00,WUHU216HW,2013-09-30 21:00:00,
2013-09-30 17:05:00,69.7,51.8,29.73,North,0,0.0,0.0,53,0.00,,,0.00,WUHU216HW,2013-09-30 21:05:00,
2013-09-30 17:10:00,69.7,51.8,29.73,North,0,0.0,0.0,53,0.00,,,0.00,WUHU216HW,2013-09-30 21:10:00,
2013-09-30 18:00:00,66.8,52.0,29.74,North,0,0.0,0.0,59,0.00,,,0.00,WUHU216HW,2013-09-30 22:00:00,
2013-09-30 18:05:00,66.4,52.6,29.74,North,0,0.0,0.0,61,0.00,,,0.00,WUHU216HW,2013-09-30 22:05:00,
2013-09-30 18:10:00,66.2,52.5,29.74,North,0,0.0,0.0,61,0.00,,,0.00,WUHU216HW,2013-09-30 22:10:00,
2013-09-30 18:15:00,66.2,52.5,29.74,North,0,0.0,0.0,61,0.00,,,0.00,WUHU216HW,2013-09-30 22:15:00,
2013-09-30 19:00:00,61.9,50.9,29.75,North,0,0.0,0.0,67,0.00,,,0.00,WUHU216HW,2013-09-30 23:00:00,
2013-09-30 19:05:00,61.6,50.5,29.75,North,0,0.0,0.0,67,0.00,,,0.00,WUHU216HW,2013-09-30 23:05:00,
2013-09-30 19:10:00,61.6,50.5,29.75,North,0,0.0,0.0,67,0.00,,,0.00,WUHU216HW,2013-09-30 23:10:00,
2013-09-30 20:00:00,56.9,48.2,29.76,North,0,0.0,0.0,73,0.00,,,0.00,WUHU216HW,2013-10-01 00:00:00,
2013-09-30 20:05:00,56.5,48.0,29.76,North,0,0.0,0.0,73,0.00,,,0.00,WUHU216HW,2013-10-01 00:05:00,
2013-09-30 20:10:00,56.5,48.0,29.76,North,0,0.0,0.0,73,0.00,,,0.00,WUHU216HW,2013-10-01 00:10:00,
2013-09-30 21:00:00,53.1,45.4,29.77,North,0,0.0,0.0,75,0.00,,,0.00,WUHU216HW,2013-10-01 01:00:00,
2013-09-30 21:05:00,53.1,45.4,29.77,North,0,0.0,0.0,75,0.00,,,0.00,WUHU216HW,2013-10-01 01:05:00,
2013-09-30 21:10:00,53.1,45.4,29.77,North,0,0.0,0.0,75,0.00,,,0.00,WUHU216HW,2013-10-01 01:10:00,
2013-09-30 22:00:00,49.7,43.0,29.77,North,0,0.0,0.0,78,0.00,,,0.00,WUHU216HW,2013-10-01 02:00:00,
2013-09-30 22:05:00,49.5,42.8,29.77,North,0,0.0,0.0,78,0.00,,,0.00,WUHU216HW,2013-10-01 02:05:00,
2013-09-30 22:10:00,49.3,42.7,29.77,North,0,0.0,0.0,78,0.00,,,0.00,WUHU216HW,2013-10-01 02:10:00,
2013-09-30 22:15:00,49.3,42.7,29.77,North,0,0.0,0.0,78,0.00,,,0.00,WUHU216HW,2013-10-01 02:15:00,
2013-09-30 23:00:00,47.2,41.0,29.77,North,0,0.0,0.0,79,0.00,,,0.00,WUHU216HW,2013-10-01 03:00:00,
2013-09-30 23:05:00,47.0,40.5,29.76,North,0,0.0,0.0,78,0.00,,,0.00,WUHU216HW,2013-10-01 03:05:00,
2013-09-30 23:10:00,47.0,40.5,29.76,North,0,0.0,0.0,78,0.00,,,0.00,WUHU216HW,2013-10-01 03:10:00,